Christmas Island, Christmas Island

5:04 PM +07 on February 22, 2018 (GMT +0700)
Christmas Island

Weather History for YPXM - August, 2013

Change the Weather History Date:

Tuesday, August 6, 2013

  Actual Average Record
Temperature  
Mean Temperature 76 °F -  
Max Temperature 79 °F 76 °F 81 °F (2016)
Min Temperature 73 °F 69 °F 69 °F (2003)
Cooling Degree Days 11    
Growing Degree Days 26 (Base 50)    
Moisture  
Dew Point 71 °F    
Average Humidity 85    
Maximum Humidity 97    
Minimum Humidity 71    
Precipitation  
Precipitation 0.04 in - - ()
Sea Level Pressure  
Sea Level Pressure 29.92 in    
Wind  
Wind Speed 11 mph ()    
Max Wind Speed 15 mph    
Max Gust Speed 24 mph    
Visibility 6.2 miles    
Events      
Averages and records for this station are not official NWS values.
T = Trace of Precipitation, MM = Missing Value Source: Averaged Metar Reports

Daily Weather History Graph

Daily Weather History Graph

Search for Another Location

Airport or City:

Trip Planner

Search our weather history database for the weather conditions in past years. The results will help you decide how hot, cold, wet, or windy it might be!

Date:

Astronomy

Aug. 06, 2013 Rise Set
Actual Time 6:12 AM +07 5:54 PM +07
Civil Twilight 5:50 AM +07 6:16 PM +07
Nautical Twilight 5:25 AM +07 6:41 PM +07
Astronomical Twilight 4:59 AM +07 7:06 PM +07
Moon 5:25 AM +07 (8/6) 5:25 PM +07 (8/6)
Length of Visible Light 12h 25m
Length of Day
11h 41m
Waning Crescent, 0% of the Moon is Illuminated
Aug 6
Waning Crescent
Aug 7
New
Aug 14
First Quarter
Aug 21
Full
Aug 28
Last Quarter

Hourly Weather History & Observations

Time (+07) Temp. Dew Point Humidity Pressure Visibility Wind Dir Wind Speed Gust Speed Precip Events Conditions
12:00 AM 76 °F 70 °F 76% 29.91 in - ESE 11.5 mph - -  
12:00 AM 75.2 °F 69.8 °F 83% 29.95 in - ESE 11.5 mph - N/A   Overcast
12:37 AM 75.2 °F 69.8 °F 83% 29.95 in 6.2 mi East 10.4 mph - N/A   Overcast
1:00 AM 76 °F 70 °F 75% 29.90 in - East 9.2 mph - -  
1:00 AM 75.2 °F 69.8 °F 83% 29.95 in 6.2 mi East 9.2 mph - N/A   Overcast
1:16 AM 75.2 °F 69.8 °F 83% 29.92 in 6.2 mi East 11.5 mph - N/A   Overcast
2:00 AM 75.2 °F 69.8 °F 83% 29.92 in 6.2 mi East 11.5 mph - N/A   Mostly Cloudy
2:42 AM 75.2 °F 69.8 °F 83% 29.92 in - East 10.4 mph - N/A   Mostly Cloudy
3:00 AM 75 °F 71 °F 82% 29.88 in - ESE 10.4 mph - -  
3:00 AM 75.2 °F 69.8 °F 83% 29.92 in - ESE 10.4 mph - N/A   Mostly Cloudy
4:00 AM 75.2 °F 71.6 °F 89% 29.92 in - ESE 11.5 mph - N/A   Overcast
5:00 AM 75.2 °F 71.6 °F 89% 29.92 in - East 11.5 mph - N/A   Overcast
6:00 AM 74 °F 73 °F 94% 29.89 in - East 11.5 mph - -   Overcast
6:00 AM 75.2 °F 73.4 °F 94% 29.92 in - East 11.5 mph - N/A   Overcast
7:00 AM 73 °F 72 °F 97% 29.91 in - East 11.5 mph - -  
7:00 AM 73.4 °F 71.6 °F 94% 29.95 in - East 11.5 mph - N/A   Overcast
8:00 AM 73.4 °F 71.6 °F 94% 29.95 in - ESE 11.5 mph - N/A   Overcast
9:00 AM 76 °F 71 °F 80% 29.94 in - ESE 15.0 mph - -   Overcast
9:00 AM 75.2 °F 71.6 °F 89% 29.98 in - ESE 15.0 mph - N/A   Overcast
10:00 AM 77 °F 71 °F 77% 29.93 in - ESE 15.0 mph - -  
10:00 AM 77.0 °F 71.6 °F 83% 29.95 in 6.2 mi ESE 15.0 mph - N/A   Overcast
11:00 AM 77.0 °F 71.6 °F 83% 29.95 in 6.2 mi ESE 15.0 mph - N/A   Overcast
12:00 PM 76 °F 72 °F 84% 29.90 in - ESE 12.7 mph - -  
12:00 PM 77.0 °F 71.6 °F 83% 29.92 in 6.2 mi ESE 12.7 mph - N/A   Overcast
1:00 PM 78 °F 71 °F 75% 29.88 in - ESE 13.8 mph - -  
1:00 PM 78.8 °F 71.6 °F 78% 29.92 in 6.2 mi ESE 13.8 mph - N/A   Mostly Cloudy
2:00 PM 77.0 °F 71.6 °F 83% 29.89 in 6.2 mi ESE 15.0 mph - N/A   Overcast
3:00 PM 74 °F 71 °F 88% 29.85 in - ESE 12.7 mph - -   Overcast
3:00 PM 73.4 °F 71.6 °F 94% 29.89 in - ESE 12.7 mph - N/A   Overcast
4:00 PM 74 °F 72 °F 91% 29.85 in - East 11.5 mph - -  
4:00 PM 75.2 °F 71.6 °F 89% 29.89 in - East 11.5 mph - N/A   Overcast
4:41 PM 75.2 °F 71.6 °F 89% 29.89 in - East 11.5 mph - N/A   Overcast
5:00 PM 75.2 °F 71.6 °F 89% 29.89 in - East 13.8 mph - N/A   Overcast
6:00 PM 75 °F 71 °F 84% 29.86 in - East 9.2 mph - -   Overcast
6:00 PM 75.2 °F 71.6 °F 89% 29.89 in - East 9.2 mph - N/A   Overcast
6:55 PM 75.2 °F 69.8 °F 83% 29.92 in - ESE 12.7 mph 24.2 mph N/A   Overcast
7:00 PM 75 °F 69 °F 78% 29.88 in - ESE 12.7 mph - -  
7:00 PM 75.2 °F 69.8 °F 83% 29.92 in - ESE 12.7 mph 24.2 mph N/A   Overcast
7:22 PM 75.2 °F 71.6 °F 89% 29.92 in - ESE 10.4 mph - N/A   Overcast
8:00 PM 75.2 °F 71.6 °F 89% 29.95 in - East 11.5 mph - N/A   Overcast
8:35 PM 75.2 °F 69.8 °F 83% 29.95 in - ESE 10.4 mph - N/A   Overcast
9:00 PM 76 °F 70 °F 76% 29.92 in - East 11.5 mph - -  
9:00 PM 75.2 °F 69.8 °F 83% 29.95 in 6.2 mi East 11.5 mph - N/A   Overcast
10:00 PM 76 °F 68 °F 71% 29.93 in - East 11.5 mph - -  
10:00 PM 75.2 °F 68.0 °F 78% 29.95 in 6.2 mi East 11.5 mph - N/A   Overcast
11:00 PM 75.2 °F 69.8 °F 83% 29.95 in 6.2 mi ESE 12.7 mph - N/A   Overcast